Flag for Rwanda Weather past 2 weeks in Gitarama, Rwanda

68 °F

Partly cloudy.

Feels Like: 68 °F
Forecast: 63 / 77 °F
Wind: No wind

Location: Kigali Airport

Current Time: Nov 26, 2015 at 2:05:41 AM

Latest Report: Nov 26, 2015 at 1:30 AM

Visibility: N/A

Pressure: 30.07 "Hg (24.17 "Hg at 1872m altitude)

Humidity: 100%

Dew point: 68 °F

Location of GitaramaLocation

Historic Weather in Gitarama — Graph


Gitarama temperature yesterday

Maximum temperature yesterday: 86 °F (at 2:00 PM)
Minimum temperature yesterday: 61 °F (at 5:00 AM)
Average temperature yesterday: 72 °F

Past Weeks' High & Low Weather Summary

High86 °F (Nov 11, 4:30 PM)100% (Nov 11, 2:00 AM)30.24 "Hg (Nov 11, 2:00 AM)
Low61 °F (Nov 16, 2:00 AM)45% (Nov 12, 2:00 PM)29.95 "Hg (Nov 14, 4:30 PM)
Average70 °F86%30.09 "Hg
* Reported Nov 11 1:30 AM — Nov 26 1:00 AM, Gitarama, Weather by CustomWeather, © 2015

Note: Actual official high and low records may vary slightly from our data, if they occured in-between our weather recording intervals... More about our weather records


Gitarama weather history for previous 24 hours

Time TempWeatherWind HumidityBarometerVisibility
1:00 AM
Thu, Nov 26
68 °FPartly cloudy.No wind100%30.09 "HgN/A
12:30 AM70 °FPartly cloudy.No wind94%30.09 "HgN/A
12:00 AM70 °FPartly cloudy.No wind94%30.09 "HgN/A
11:30 PM
Wed, Nov 25
70 °FPartly cloudy.3 mph94%30.09 "HgN/A
11:00 PM70 °FPartly cloudy.No wind94%30.09 "HgN/A
10:30 PM70 °FPartly cloudy.No wind94%30.09 "HgN/A
10:00 PM70 °FPartly cloudy.No wind88%30.09 "HgN/A
9:30 PM70 °FPartly cloudy.3 mph94%30.09 "HgN/A
9:00 PM70 °FPartly cloudy.3 mph94%30.09 "HgN/A
8:30 PM70 °FPartly cloudy.6 mph94%30.09 "HgN/A
8:00 PM70 °FPartly cloudy.3 mph94%30.07 "HgN/A
7:30 PM70 °FPassing clouds.5 mph94%30.04 "HgN/A
7:00 PM72 °FPassing clouds.5 mph88%30.04 "HgN/A
6:30 PM72 °FPassing clouds.5 mph88%30.04 "HgN/A
6:00 PM72 °FPassing clouds.3 mph83%30.01 "HgN/A
5:30 PM72 °FPartly sunny.3 mph83%30.01 "HgN/A
5:00 PM73 °FThunderstorms. Partly sunny.5 mph78%29.98 "HgN/A
4:30 PM75 °FThunderstorms. Partly sunny.14 mph78%29.95 "HgN/A
4:00 PM84 °FScattered clouds.8 mph48%29.95 "HgN/A
3:30 PM84 °FScattered clouds.8 mph48%29.95 "HgN/A
3:00 PM84 °FScattered clouds.8 mph48%29.95 "HgN/A
2:30 PM82 °FPartly sunny.9 mph58%29.98 "HgN/A
2:00 PM86 °FPartly sunny.3 mph46%29.98 "HgN/A
1:30 PM84 °FPartly sunny.6 mph51%30.01 "HgN/A
1:00 PM82 °FPartly sunny.No wind55%30.01 "HgN/A
12:30 PM82 °FPartly sunny.5 mph55%30.04 "HgN/A
12:00 PM84 °FPartly sunny.3 mph51%30.04 "HgN/A
11:30 AM82 °FScattered clouds.5 mph51%30.07 "HgN/A
11:00 AM81 °FScattered clouds.3 mph62%30.09 "HgN/A
10:30 AM81 °FPassing clouds.3 mph62%30.09 "HgN/A
10:00 AM79 °FPassing clouds.No wind65%30.09 "HgN/A
9:00 AM75 °FPassing clouds.No wind74%30.12 "HgN/A
8:30 AM73 °FPassing clouds.No wind78%30.12 "HgN/A
8:00 AM72 °FPassing clouds.No wind78%30.12 "HgN/A
7:30 AM70 °FPassing clouds.No wind88%30.09 "HgN/A
7:00 AM66 °FPassing clouds.No wind94%30.09 "HgN/A
6:30 AM63 °FPassing clouds.3 mph100%30.09 "HgN/A
6:00 AM61 °FPassing clouds.6 mph100%30.07 "HgN/A
5:30 AM61 °FPassing clouds.3 mph100%30.07 "HgN/A
5:00 AM61 °FPassing clouds.7 mph100%30.07 "HgN/A
4:30 AM63 °FPassing clouds.6 mph100%30.07 "HgN/A
4:00 AM63 °FPassing clouds.No wind100%30.07 "HgN/A
3:30 AM63 °FPassing clouds.3 mph100%30.07 "HgN/A
2:30 AM63 °FPassing clouds.5 mph100%30.07 "HgN/A
2:00 AM63 °FPassing clouds.7 mph100%30.07 "HgN/A
Weather by CustomWeather, © 2015

See weather overviewHow to use our weather pages